Location: Dana
(41.8364°N, 106.7042°W)
Time: 12:10:11
(UTC+00:00)

Tiros 1 despin weight - Pass Details

Date: 15 May 2026
Orbit: 554 x 591 km, 48.2° (Epoch: 10 June)

Event Time Altitude Azimuth Distance (km) Brightness Sun altitude
Rises 10:21:05 0° 186° (S) 2,756 - -14.0°
Exits shadow 10:23:03 - 172° (S) 2,188 ? -13.7°
Reaches altitude 10° 10:24:41 10° 154° (SSE) 1,854 ? -13.5°
Maximum altitude 10:26:16 12° 132° (SE) 1,733 ? -13.3°
Drops below altitude 10° 10:27:51 10° 110° (ESE) 1,850 ? -13.0°
Sets 10:31:25 0° 79° (ENE) 2,743 ? -12.5°
